Tracking 25656 objects as of 21-May-2022
HD Live streaming from Space Station
objects crossing your sky now

ONEWEB-0267

Track ONEWEB-0267 now!
10-day predictions
ONEWEB-0267 is classified as:


NORAD ID: 48985
Int'l Code: 2021-061U
Perigee: 1,203.4 km
Apogee: 1,206.6 km
Inclination: 87.9 °
Period: 109.4 minutes
Semi major axis: 7575 km
RCS: Unknown
Launch date: July 1, 2021
Source: United Kingdom (UK)
Launch site: VOSTOCHNY COSMODROME (VOSTO)
aabbcc
Your satellite tracking list
Your tracking list is empty




NASA's NSSDC Master Catalog

Two Line Element Set (TLE):
1 48985U 21060U   22140.91667824  .00046217  00000-0  12029+0 0  9998
2 48985  87.9124 165.0172 0002095  73.2615  41.4616 13.16572883  1309
Source of the keplerian elements: AFSPC